Overview Statistics Trail Chart Weather Telemetry Raw packets
 

This is the latest recevied weather packets stored in our database for station/object N1YZ. If no packets are shown the sender has not sent any weather packets the latest 10 day(s).

<< 76 77 78 79 80 81 82 >>
Time Temp. Humidity Pressure Rain* Wind** Luminosity Snow
1788103148 27.22° C 84% 1040.4 hPa 0 mm - 120 W/m² -
1788102842 27.22° C 87% 1040.7 hPa 0 mm - 147 W/m² -
1788102537 27.22° C 86% 1040.6 hPa 0 mm - 52 W/m² -
1788102237 26.67° C 88% 1040.6 hPa 0 mm - 184 W/m² -
1788101931 27.22° C 89% 1040.5 hPa 0 mm - 490 W/m² -
1788101626 26.67° C 88% 1040.8 hPa 0 mm - 171 W/m² -
1788101321 27.22° C 87% 1040.6 hPa 0 mm - 97 W/m² -
1788101017 27.22° C 86% 1040.7 hPa 0 mm - 94 W/m² -
1788100713 27.22° C 86% 1040.7 hPa 0 mm - 104 W/m² -
1788100412 27.78° C 86% 1040.5 hPa 0 mm - 98 W/m² -
1788100106 27.78° C 86% 1040.5 hPa 0 mm - 87 W/m² -
1788099801 27.22° C 86% 1040.8 hPa 0 mm - 368 W/m² -
1788099497 26.67° C 89% 1040.6 hPa 0 mm - 145 W/m² -
1788099191 26.11° C 89% 1040.6 hPa 0 mm - 301 W/m² -
1788098887 26.11° C 91% 1040.6 hPa 0 mm - 34 W/m² -
1788098587 25.56° C 91% 1040.6 hPa 0 mm - 37 W/m² -
1788098281 25.56° C 93% 1040.7 hPa 0 mm - 32 W/m² -
1788097977 25.56° C 93% 1040.7 hPa 0 mm - 29 W/m² -
1788097673 25° C 93% 1040.5 hPa 0 mm - 28 W/m² -
1788097374 25° C 94% 1040.7 hPa 0 mm - 53 W/m² -
1788097063 25° C 95% 1040.8 hPa 0 mm - 37 W/m² -
1788096759 25° C 96% 1040.7 hPa 0 mm - 29 W/m² -
1788096454 24.44° C 96% 1040.7 hPa 0 mm - 30 W/m² -
1788096150 24.44° C 97% 1040.5 hPa 0 mm - 30 W/m² -
1788095849 24.44° C 97% 1040.3 hPa 0 mm - 64 W/m² -

* Rain latest hour (hover to see other rain measurements)
** Current wind speed in m/s (hover to see current wind gust speed)